カタログに戻る

STARLINK-31364

運用中通信VLEO
NORAD 59463·PAYLOAD·🇺🇸 United States

打ち上げ Apr 10, 2024 から Cape Canaveral Space Force Station

Loading…

次のパス (今後24時間)

TLE

最新Source: CelesTrak SupGP

元期: Sep 15, 2026, 02:36 UTC

1 59463C 24068J   26258.10881944 -.00023120  00000+0 -83737-3 0  2583
2 59463  43.0033  41.1334 0001390 267.0509 108.8065 15.27592069    15

AllMySatでSTARLINK-31364をリアルタイム追跡

Download on the App Store